Simultaneous Nadir Overpasses (SNOs) Predictions

Prediction of SNOs between AQUA and NPP Satellite Orbit:

Table of predicted SNOs for the next 14.0 days since TLE Epoch: 2/20/2021
Index Date (AQUA) Time (AQUA) Lat,Lon (AQUA) SZA (AQUA ) Date (NPP) Time (NPP) Lat,Lon (NPP) SZA (NPP ) Distance(km) Time Diff (sec)
1 02/20/2021 14:05:14 75.74,-153.02 108.67 02/20/2021 14:04:21 75.74,-153.02 108.71 0.13 53
2 02/20/2021 14:54:22 -76.69, 17.67 72.45 02/20/2021 14:54:46 -76.68, 17.63 72.46 1.12 24
3 02/23/2021 06:21:32 76.23, -35.60 107.12 02/23/2021 06:21:04 76.24, -35.55 107.14 1.27 28
4 02/23/2021 07:10:42 -77.07, 134.94 73.88 02/23/2021 07:11:31 -77.07, 134.97 73.93 0.55 49
5 02/25/2021 21:53:15 -60.97,-109.42 58.38 02/25/2021 21:52:02 -61.18,-110.75 58.02 75.03 73
6 02/25/2021 22:37:52 76.67, 81.74 105.62 02/25/2021 22:37:49 76.68, 81.85 105.60 2.96 3
7 02/25/2021 23:26:46 -78.20,-104.38 76.28 02/25/2021 23:28:00 -78.15,-104.17 76.35 7.26 74
8 02/28/2021 14:05:17 -75.63, 26.67 74.18 02/28/2021 14:04:23 -75.62, 26.60 74.11 2.04 54
9 02/28/2021 14:54:20 76.72,-162.21 104.56 02/28/2021 14:54:43 76.71,-162.24 104.54 0.88 23
10 03/03/2021 06:21:35 -76.16, 144.16 75.81 03/03/2021 06:21:06 -76.16, 144.17 75.79 0.43 29
11 03/03/2021 07:10:40 77.13, -44.81 103.03 03/03/2021 07:11:28 77.14, -44.74 102.97 1.69 48
12 03/05/2021 21:54:13 57.41, 68.33 121.97 03/05/2021 21:53:01 57.64, 66.84 122.41 92.69 72
13 03/05/2021 22:38:00 -76.29, -99.54 77.00 03/05/2021 22:37:57 -76.28, -99.63 76.98 2.54 3



Historial Predications of SNOs between AQUA and NPP
